Terminal Aerodrome Forecast
Issued by NWS Blacksburg, VA

Home | Current Version | Previous Version | Text Only | Print | Product List | Glossary On
Versions: 1 2 3 4 5 6 7 8 9 10 11 12 13 14 15 16 17 18 19 20 21 22 23 24 25 26 27 28 29 30 31
000
FTUS41 KRNK 310520
TAFROA
TAF
KROA 310520Z 3106/0106 00000KT P6SM SCT035
     FM311500 22007KT P6SM SCT020 BKN100
     FM010000 18004KT P6SM BKN045 OVC080=

USA.gov is the U.S. government's official web portal to all federal, state and local government web resources and services.